This demonstration page uses our WeatherBlox Daily Observations layout. Learn more.

Left ArrowRight Arrow

39.51506, -84.39828

Hourly Observations for February 28, 2021

Temp ( °F °C ) Dew Point ( °F °C ) Humidity (%) Winds ( mph kmh ) Pressure ( in mb ) Visibility ( mi km ) Precip ( " mm )
12:15 am 00:15 Cloudy 48 8.7 44 6.7 87 87 ENE 3 6 30.08 1019 10 16 0.00 0.00
12:35 am 00:35 Cloudy 49 9.4 44 6.7 83 83 ESE 3 6 30.09 1019 10 16 0.00 0.00
12:55 am 00:55 Cloudy with Light Rain 49 9.5 44 6.9 84 84 E 5 7 30.08 1019 10 16 0.00 0.00
1:15 am 01:15 Cloudy with Drizzle 48 8.7 45 7.3 91 91 NE 7 11 30.06 1018 10 16 0.00 0.00
1:35 am 01:35 Cloudy with Drizzle 47 8.4 46 7.7 95 95 NE 3 6 30.05 1018 10 16 0.00 0.00
1:55 am 01:55 Cloudy with Light Rain 47 8.6 46 7.8 95 95 N 6 9 30.05 1018 7 11 0.01 0.25
2:15 am 02:15 Cloudy with Light Rain 47 8.5 47 8.2 98 98 Calm 30.05 1018 7 11 0.05 1.27
2:35 am 02:35 Cloudy with Light Rain 46 8 46 8 100 100 N 5 7 30.05 1018 4 6 0.10 2.54
2:55 am 02:55 Cloudy with Light Rain 48 9 N/A N/A S 6 9 30.02 1017 7 11 0.12 3.05
3:15 am 03:15 Cloudy with Light Rain 46 8 N/A N/A Calm 30.01 1016 7 11 0.01 0.25
3:35 am 03:35 Cloudy with Light Rain 46 8 N/A N/A S 5 7 29.99 1016 4 6 0.02 0.51
3:55 am 03:55 Cloudy with Light Rain 48 9 N/A N/A NNW 3 6 30.01 1016 5 8 0.04 1.02
4:15 am 04:15 Mostly Cloudy with Rain 46 8 N/A N/A NNE 3 6 30.00 1016 4 6 0.03 0.76
4:35 am 04:35 Cloudy with Rain 46 8 N/A N/A Calm 29.99 1016 3 5 0.08 2.03
4:55 am 04:55 Cloudy with Light Rain 46 8 N/A N/A Calm 29.97 1015 3 4 0.12 3.05
5:15 am 05:15 Cloudy with Light Rain 46 8 N/A N/A Calm 29.98 1015 3 5 0.02 0.51
5:35 am 05:35 Cloudy with Light Rain 46 8 N/A N/A Calm 29.97 1015 3 4 0.04 1.02
5:55 am 05:55 Cloudy with Rain 46 8 N/A N/A Calm 29.97 1015 2 3 0.07 1.78
6:15 am 06:15 Cloudy with Rain 46 8 N/A N/A Calm 29.96 1015 2 3 0.04 1.02
6:35 am 06:35 Cloudy with Light Rain 46 8 N/A N/A Calm 29.96 1015 2 2 0.05 1.27
6:55 am 06:55 Cloudy with Light Rain 48 9 N/A N/A Calm 29.92 1013 2 2 0.06 1.52
7:15 am 07:15 Cloudy with Mist and Fog 48 9 N/A N/A Calm 29.92 1013 4 6 0.00 0.00
7:35 am 07:35 Cloudy with Light Rain 48 9 N/A N/A Calm 29.93 1014 2 2 0.03 0.76
7:55 am 07:55 Cloudy with Rain 48 9 N/A N/A Calm 29.94 1014 1 2 0.07 1.78
8:15 am 08:15 Cloudy with Rain 48 9 N/A N/A NW 3 6 29.95 1014 1 2 0.04 1.02
8:35 am 08:35 Cloudy with Rain 50 10 N/A N/A Calm 29.95 1014 1 1 0.13 3.30
8:55 am 08:55 Cloudy with Rain 50 10 N/A N/A NE 3 6 29.94 1014 1 1 0.17 4.32
9:15 am 09:15 Cloudy with Rain 50 10 N/A N/A NE 7 11 29.92 1013 1 1 0.04 1.02
9:35 am 09:35 Cloudy with Rain 52 11 N/A N/A Calm 29.94 1014 2 3 0.09 2.29
9:55 am 09:55 Cloudy with Light Rain 52 11 N/A N/A ENE 5 7 29.92 1013 2 3 0.13 3.30
10:15 am 10:15 Cloudy with Light Rain 52 11 N/A N/A Calm 29.93 1013 4 6 0.02 0.51
10:35 am 10:35 Cloudy with Light Rain 52 11 N/A N/A NE 6 9 29.91 1013 4 6 0.04 1.02
10:55 am 10:55 Cloudy with Light Rain 54 12 N/A N/A E 5 7 29.88 1012 5 8 0.05 1.27
11:15 am 11:15 Cloudy 54 12 N/A N/A ESE 3 6 29.88 1012 10 16 0.00 0.00
11:35 am 11:35 Cloudy with Rain 54 12 N/A N/A Calm 29.88 1012 3 5 0.03 0.76
11:55 am 11:55 Cloudy with Light Rain 55 13 N/A N/A SE 5 7 29.86 1011 7 11 0.04 1.02
12:15 pm 12:15 Mostly Cloudy 57 14 N/A N/A ESE 5 7 29.86 1011 10 16 0.00 0.00
12:35 pm 12:35 Cloudy 57 13.8 56 13.3 97 97 ESE 5 7 29.86 1011 10 16 0.00 0.00
12:55 pm 12:55 Cloudy 57 13.8 56 13.1 96 96 SE 8 13 29.84 1010 10 16 0.00 0.00
1:15 pm 13:15 Cloudy 57 14 56 13.2 95 95 SE 9 15 29.81 1009 10 16 0.00 0.00
1:35 pm 13:35 Mostly Cloudy 58 14.4 56 13.6 95 95 SSE 9 15 29.79 1009 10 16 0.00 0.00
1:55 pm 13:55 Partly Cloudy 59 15 57 13.9 93 93 SSE 9 15 29.78 1008 10 16 0.00 0.00
2:15 pm 14:15 Mostly Cloudy 59 15.2 57 13.8 91 91 S 12 19 29.77 1008 10 16 0.00 0.00
2:35 pm 14:35 Cloudy 61 15.9 58 14.4 91 91 S 14 22 29.74 1007 10 16 0.00 0.00
2:55 pm 14:55 Cloudy 60 15.7 58 14.3 91 91 SW 10 17 29.77 1008 10 16 0.00 0.00
3:15 pm 15:15 Cloudy 60 15.6 58 14.5 93 93 SW 10 17 29.77 1008 10 16 0.00 0.00
3:35 pm 15:35 Cloudy 60 15.6 58 14.7 94 94 SW 9 15 29.77 1008 10 16 0.00 0.00
3:55 pm 15:55 Cloudy 60 15.8 58 14.5 92 92 WSW 16 26 29.76 1008 10 16 0.00 0.00
4:15 pm 16:15 Cloudy 60 15.6 58 14.5 93 93 SW 13 20 29.78 1008 10 16 0.00 0.00
4:35 pm 16:35 Cloudy 60 15.6 58 14.4 93 93 SW 10 17 29.77 1008 10 16 0.00 0.00
4:55 pm 16:55 Cloudy 61 16 58 14.6 91 91 SSW 10 17 29.75 1008 10 16 0.00 0.00
5:15 pm 17:15 Cloudy 61 16 58 14.6 91 91 SSW 9 15 29.75 1008 10 16 0.00 0.00
5:35 pm 17:35 Cloudy 60 15.5 58 14.4 93 93 SW 9 15 29.76 1008 10 16 0.00 0.00
5:55 pm 17:55 Cloudy 59 15.2 58 14.3 94 94 SW 5 7 29.77 1008 10 16 0.00 0.00
6:15 pm 18:15 Cloudy 59 15.1 58 14.2 94 94 SW 9 15 29.77 1008 10 16 0.00 0.00
6:35 pm 18:35 Cloudy 59 15 58 14.2 95 95 SW 10 17 29.79 1009 10 16 0.00 0.00
6:55 pm 18:55 Cloudy with Light Rain 58 14.7 58 14.2 97 97 SW 10 17 29.81 1009 10 16 0.02 0.51
7:15 pm 19:15 Cloudy with Light Rain 58 14.3 57 14.1 99 99 SSW 7 11 29.80 1009 10 16 0.01 0.25
7:35 pm 19:35 Cloudy with Light Rain 57 14 57 14 100 100 SW 7 11 29.80 1009 10 16 0.01 0.25
7:55 pm 19:55 Cloudy with Light Rain 57 14 N/A N/A WSW 7 11 29.81 1009 10 16 0.02 0.51
8:15 pm 20:15 Cloudy with Light Rain 58 14.3 57 14.1 99 99 SW 8 13 29.80 1009 10 16 0.00 0.00
8:35 pm 20:35 Cloudy 57 14 57 14 100 100 SW 5 7 29.81 1009 10 16 0.00 0.00
8:55 pm 20:55 Cloudy 57 14 N/A N/A SSW 7 11 29.81 1009 10 16 0.00 0.00
9:15 pm 21:15 Cloudy with Light Rain 57 14 N/A N/A SSW 6 9 29.81 1009 7 11 0.00 0.00
9:35 pm 21:35 Cloudy with Heavy Rain 57 14 N/A N/A SW 7 11 29.83 1010 4 6 0.06 1.52
9:55 pm 21:55 Cloudy with Light Rain 57 14 N/A N/A SW 6 9 29.82 1010 5 8 0.12 3.05
10:15 pm 22:15 Cloudy with Light Rain 57 14 N/A N/A S 8 13 29.81 1009 5 8 0.02 0.51
10:35 pm 22:35 Cloudy with Light Rain 57 14 N/A N/A WSW 8 13 29.82 1010 7 11 0.02 0.51
10:55 pm 22:55 Cloudy with Light Rain 54 12 N/A N/A WNW 16 26 29.82 1010 5 8 0.05 1.27
11:15 pm 23:15 Cloudy 51 10.4 42 5.8 73 73 WNW 9 15 29.84 1010 10 16 0.00 0.00
11:35 pm 23:35 Cloudy with Light Rain 50 10.1 44 6.8 80 80 NNW 3 6 29.83 1010 10 16 0.00 0.00
11:55 pm 23:55 Cloudy 50 10.1 45 7.3 83 83 Calm 29.84 1010 10 16 0.00 0.00

Powered by AerisWeather